Stündliche Wetter Cavarzere

Heute, 25 Oktober, Sonntag

Zeit Temperatur Niederschläge Wind Luftdruck Luftfeuchtigkeit
00:00 +14°C° 0.2 mm 3 m/S 762 mmHg 91%
01:00 +14°C° 0.2 mm 3 m/S 762 mmHg 92%
02:00 +14°C° 0 mm 2 m/S 761 mmHg 92%
03:00 +14°C° 0 mm 2 m/S 761 mmHg 92%
04:00 +14°C° 0 mm 2 m/S 761 mmHg 92%
05:00 +14°C° 0 mm 2 m/S 761 mmHg 92%
06:00 +14°C° 0 mm 2 m/S 761 mmHg 92%
07:00 +13°C° 0 mm 2 m/S 761 mmHg 92%
08:00 +15°C° 0 mm 2 m/S 761 mmHg 87%
09:00 +16°C° 0 mm 2 m/S 761 mmHg 81%
10:00 +17°C° 0 mm 2 m/S 761 mmHg 76%
11:00 +18°C° 0 mm 2 m/S 761 mmHg 72%
12:00 +19°C° 0 mm 2 m/S 760 mmHg 68%
13:00 +20°C° 0 mm 2 m/S 760 mmHg 64%
14:00 +20°C° 0 mm 2 m/S 760 mmHg 64%
15:00 +20°C° 0 mm 2 m/S 759 mmHg 63%
16:00 +20°C° 0 mm 2 m/S 759 mmHg 63%
17:00 +19°C° 0 mm 2 m/S 759 mmHg 67%
18:00 +18°C° 0 mm 2 m/S 759 mmHg 71%
19:00 +17°C° 0 mm 2 m/S 760 mmHg 74%
20:00 +17°C° 0 mm 2 m/S 760 mmHg 75%
21:00 +17°C° 0 mm 2 m/S 760 mmHg 76%
22:00 +16°C° 0 mm 3 m/S 760 mmHg 77%
23:00 +16°C° 0 mm 3 m/S 759 mmHg 78%

Morgen, 26 Oktober, Montag

Zeit Temperatur Niederschläge Wind Luftdruck Luftfeuchtigkeit
00:00 +16°C° 0 mm 3 m/S 759 mmHg 78%
01:00 +14°C° 0 mm 3 m/S 759 mmHg 79%
02:00 +14°C° 0 mm 3 m/S 758 mmHg 79%
03:00 +14°C° 0 mm 3 m/S 758 mmHg 79%
04:00 +14°C° 0 mm 3 m/S 758 mmHg 79%
05:00 +14°C° 0 mm 3 m/S 758 mmHg 80%
06:00 +14°C° 0 mm 3 m/S 757 mmHg 81%
07:00 +13°C° 0 mm 3 m/S 757 mmHg 81%
08:00 +16°C° 0 mm 3 m/S 757 mmHg 77%
09:00 +17°C° 0 mm 4 m/S 757 mmHg 73%
10:00 +19°C° 0 mm 4 m/S 757 mmHg 68%
11:00 +19°C° 0 mm 5 m/S 756 mmHg 66%
12:00 +20°C° 0 mm 5 m/S 756 mmHg 63%
13:00 +21°C° 0 mm 6 m/S 756 mmHg 61%
14:00 +20°C° 0.1 mm 5 m/S 755 mmHg 63%
15:00 +20°C° 0.1 mm 4 m/S 755 mmHg 65%
16:00 +19°C° 0.1 mm 4 m/S 754 mmHg 67%
17:00 +19°C° 0.4 mm 4 m/S 754 mmHg 70%
18:00 +18°C° 0.4 mm 4 m/S 755 mmHg 73%
19:00 +17°C° 0.4 mm 5 m/S 755 mmHg 76%
20:00 +17°C° 0.7 mm 4 m/S 755 mmHg 78%
21:00 +17°C° 0.7 mm 4 m/S 755 mmHg 80%
22:00 +17°C° 0.7 mm 3 m/S 755 mmHg 82%
23:00 +16°C° 0.2 mm 2 m/S 755 mmHg 82%

übermorgen, 27 Oktober, Dienstag

Zeit Temperatur Niederschläge Wind Luftdruck Luftfeuchtigkeit
00:00 +16°C° 0.2 mm 2 m/S 754 mmHg 81%
01:00 +16°C° 0.2 mm 1 m/S 754 mmHg 80%
02:00 +15°C° 0.5 mm 1 m/S 754 mmHg 82%
03:00 +15°C° 0.5 mm 1 m/S 754 mmHg 84%
04:00 +15°C° 0.5 mm 2 m/S 753 mmHg 86%
05:00 +15°C° 0.4 mm 2 m/S 754 mmHg 86%
06:00 +14°C° 0.4 mm 3 m/S 754 mmHg 85%
07:00 +14°C° 0.4 mm 3 m/S 754 mmHg 85%
08:00 +15°C° 0 mm 4 m/S 755 mmHg 79%
09:00 +15°C° 0 mm 4 m/S 755 mmHg 73%
10:00 +17°C° 0 mm 4 m/S 756 mmHg 67%
11:00 +18°C° 0.1 mm 4 m/S 756 mmHg 63%
12:00 +18°C° 0.1 mm 4 m/S 756 mmHg 60%
13:00 +19°C° 0.1 mm 3 m/S 757 mmHg 56%
14:00 +19°C° 0 mm 3 m/S 757 mmHg 56%
15:00 +19°C° 0 mm 2 m/S 757 mmHg 56%
16:00 +18°C° 0 mm 2 m/S 757 mmHg 57%
17:00 +17°C° 0 mm 2 m/S 758 mmHg 62%
18:00 +16°C° 0 mm 2 m/S 758 mmHg 67%
19:00 +15°C° 0 mm 2 m/S 759 mmHg 72%
20:00 +15°C° 0 mm 2 m/S 759 mmHg 74%
21:00 +14°C° 0 mm 2 m/S 760 mmHg 76%
22:00 +14°C° 0 mm 2 m/S 760 mmHg 78%
23:00 +13°C° 0 mm 2 m/S 760 mmHg 80%

28 Oktober, Mittwoch

Zeit Temperatur Niederschläge Wind Luftdruck Luftfeuchtigkeit
00:00 +13°C° 0 mm 2 m/S 760 mmHg 81%
01:00 +13°C° 0 mm 2 m/S 760 mmHg 83%
02:00 +12°C° 0 mm 2 m/S 760 mmHg 84%
03:00 +12°C° 0 mm 2 m/S 760 mmHg 84%
04:00 +12°C° 0 mm 2 m/S 761 mmHg 85%
05:00 +12°C° 0 mm 2 m/S 761 mmHg 85%
06:00 +10°C° 0 mm 2 m/S 761 mmHg 85%
07:00 +10°C° 0 mm 2 m/S 761 mmHg 86%
08:00 +12°C° 0 mm 2 m/S 761 mmHg 80%
09:00 +14°C° 0 mm 2 m/S 762 mmHg 75%
10:00 +15°C° 0 mm 1 m/S 762 mmHg 69%
11:00 +16°C° 0 mm 1 m/S 762 mmHg 65%
12:00 +18°C° 0 mm 1 m/S 761 mmHg 61%
13:00 +19°C° 0 mm 1 m/S 761 mmHg 57%
14:00 +18°C° 0 mm 1 m/S 761 mmHg 58%
15:00 +18°C° 0 mm 1 m/S 761 mmHg 58%
16:00 +18°C° 0 mm 1 m/S 761 mmHg 59%
17:00 +16°C° 0 mm 1 m/S 761 mmHg 62%
18:00 +15°C° 0 mm 1 m/S 762 mmHg 65%
19:00 +14°C° 0 mm 1 m/S 762 mmHg 68%
20:00 +14°C° 0 mm 1 m/S 762 mmHg 70%
21:00 +14°C° 0 mm 2 m/S 763 mmHg 72%
22:00 +13°C° 0 mm 2 m/S 763 mmHg 74%
23:00 +13°C° 0 mm 2 m/S 763 mmHg 75%

29 Oktober, Donnerstag

Zeit Temperatur Niederschläge Wind Luftdruck Luftfeuchtigkeit
00:00 +13°C° 0 mm 2 m/S 763 mmHg 76%
01:00 +12°C° 0 mm 2 m/S 763 mmHg 78%
02:00 +12°C° 0 mm 2 m/S 763 mmHg 79%
03:00 +12°C° 0 mm 2 m/S 763 mmHg 80%
04:00 +10°C° 0 mm 2 m/S 763 mmHg 82%
05:00 +10°C° 0 mm 2 m/S 764 mmHg 83%
06:00 +10°C° 0 mm 2 m/S 764 mmHg 84%
07:00 +10°C° 0 mm 2 m/S 764 mmHg 84%
08:00 +12°C° 0 mm 2 m/S 764 mmHg 80%
09:00 +13°C° 0 mm 2 m/S 765 mmHg 75%
10:00 +14°C° 0 mm 2 m/S 765 mmHg 70%
11:00 +15°C° 0 mm 1 m/S 765 mmHg 66%
12:00 +16°C° 0 mm 1 m/S 765 mmHg 62%
13:00 +18°C° 0 mm 1 m/S 765 mmHg 58%
14:00 +18°C° 0 mm 1 m/S 765 mmHg 58%
15:00 +16°C° 0 mm 0 m/S 765 mmHg 58%
16:00 +16°C° 0 mm 0 m/S 765 mmHg 58%
17:00 +15°C° 0 mm 0 m/S 766 mmHg 62%
18:00 +14°C° 0 mm 0 m/S 766 mmHg 66%
19:00 +14°C° 0 mm 1 m/S 767 mmHg 70%
20:00 +14°C° 0 mm 1 m/S 767 mmHg 71%
21:00 +14°C° 0 mm 1 m/S 768 mmHg 73%
22:00 +13°C° 0 mm 1 m/S 768 mmHg 74%
23:00 +13°C° 0 mm 1 m/S 768 mmHg 75%

30 Oktober, Freitag

Zeit Temperatur Niederschläge Wind Luftdruck Luftfeuchtigkeit
00:00 +13°C° 0 mm 1 m/S 768 mmHg 76%
01:00 +12°C° 0 mm 1 m/S 769 mmHg 77%
02:00 +12°C° 0 mm 1 m/S 769 mmHg 77%
03:00 +12°C° 0 mm 1 m/S 769 mmHg 78%
04:00 +12°C° 0 mm 1 m/S 769 mmHg 78%
05:00 +12°C° 0 mm 1 m/S 769 mmHg 78%
06:00 +12°C° 0 mm 1 m/S 769 mmHg 79%
07:00 +12°C° 0 mm 1 m/S 769 mmHg 79%
08:00 +13°C° 0 mm 1 m/S 769 mmHg 74%
09:00 +14°C° 0 mm 1 m/S 769 mmHg 68%
10:00 +16°C° 0 mm 1 m/S 769 mmHg 62%
11:00 +16°C° 0 mm 1 m/S 769 mmHg 59%
12:00 +18°C° 0 mm 1 m/S 769 mmHg 55%
13:00 +19°C° 0 mm 1 m/S 769 mmHg 51%
14:00 +19°C° 0 mm 1 m/S 769 mmHg 52%
15:00 +19°C° 0 mm 1 m/S 768 mmHg 53%
16:00 +19°C° 0 mm 1 m/S 768 mmHg 54%
17:00 +18°C° 0 mm 1 m/S 768 mmHg 58%
18:00 +16°C° 0 mm 1 m/S 769 mmHg 62%
19:00 +15°C° 0 mm 1 m/S 769 mmHg 65%
20:00 +15°C° 0 mm 1 m/S 769 mmHg 67%
21:00 +14°C° 0 mm 1 m/S 769 mmHg 69%
22:00 +14°C° 0 mm 1 m/S 769 mmHg 70%
23:00 +14°C° 0 mm 1 m/S 769 mmHg 71%
Mehr zeigen